DAL3716 KLAX-KSAN

Flight info

Callsign DAL3716
Flight time 0h 29m
Altitude 13000
Route LAXX1 MZB
Aircraft A320/M-SDE3FGHIRWY/LB1

Departure

Time 2026-05-07 22:26
Airport Los Angeles International Airport (KLAX)

Arrival

Time 2026-05-07 22:55
Airport San Diego International Airport (KSAN)
Time Latitude Longitude Altitude Speed Heading
2026-05-07 21:56 33.94202 -118.40401 93 ft 0 kts 263°
2026-05-07 22:14 33.94204 -118.40378 93 ft 4 kts 273°
2026-05-07 22:15 33.94202 -118.40346 93 ft 4 kts 258°
2026-05-07 22:15 33.94202 -118.40338 93 ft 4 kts 226°
2026-05-07 22:15 33.94180 -118.40336 93 ft 4 kts 173°
2026-05-07 22:15 33.94156 -118.40332 95 ft 4 kts 173°
2026-05-07 22:16 33.94129 -118.40328 95 ft 4 kts 173°
2026-05-07 22:16 33.94103 -118.40324 95 ft 4 kts 173°
2026-05-07 22:16 33.94076 -118.40320 93 ft 4 kts 173°
2026-05-07 22:16 33.94049 -118.40316 99 ft 4 kts 173°
2026-05-07 22:17 33.94029 -118.40314 93 ft 0 kts 173°
2026-05-07 22:19 33.94008 -118.40309 93 ft 6 kts 167°
2026-05-07 22:19 33.93943 -118.40297 95 ft 12 kts 173°
2026-05-07 22:20 33.93858 -118.40267 95 ft 11 kts 121°
2026-05-07 22:20 33.93860 -118.40183 96 ft 9 kts 82°
2026-05-07 22:20 33.93868 -118.40110 97 ft 8 kts 84°
2026-05-07 22:20 33.93875 -118.40043 96 ft 9 kts 82°
2026-05-07 22:21 33.93881 -118.39974 96 ft 9 kts 83°
2026-05-07 22:21 33.93891 -118.39883 96 ft 13 kts 83°
2026-05-07 22:21 33.93903 -118.39753 95 ft 18 kts 83°
2026-05-07 22:21 33.93920 -118.39591 95 ft 21 kts 83°
2026-05-07 22:22 33.93940 -118.39396 96 ft 25 kts 85°
2026-05-07 22:22 33.93964 -118.39176 95 ft 26 kts 81°
2026-05-07 22:22 33.93984 -118.38970 96 ft 24 kts 83°
2026-05-07 22:22 33.94003 -118.38783 94 ft 21 kts 83°
2026-05-07 22:23 33.94021 -118.38616 95 ft 19 kts 82°
2026-05-07 22:23 33.94035 -118.38468 97 ft 17 kts 83°
2026-05-07 22:23 33.94049 -118.38331 96 ft 16 kts 83°
2026-05-07 22:23 33.94062 -118.38205 94 ft 15 kts 83°
2026-05-07 22:24 33.94075 -118.38080 93 ft 15 kts 83°
2026-05-07 22:24 33.94053 -118.38003 93 ft 9 kts 161°
2026-05-07 22:24 33.93995 -118.38010 93 ft 8 kts 216°
2026-05-07 22:24 33.93979 -118.38071 94 ft 1 kts 265°
2026-05-07 22:25 33.93978 -118.38080 94 ft 7 kts 264°
2026-05-07 22:25 33.93942 -118.38418 99 ft 75 kts 263°
2026-05-07 22:25 33.93852 -118.39285 97 ft 132 kts 263°
2026-05-07 22:25 33.93718 -118.40545 252 ft 163 kts 263°
2026-05-07 22:26 33.93585 -118.41903 825 ft 164 kts 262°
2026-05-07 22:26 33.93437 -118.43277 1430 ft 166 kts 262°
2026-05-07 22:26 33.93136 -118.44645 1924 ft 181 kts 241°
2026-05-07 22:26 33.92289 -118.45914 2043 ft 207 kts 232°
2026-05-07 22:27 33.91320 -118.47350 2131 ft 235 kts 234°
2026-05-07 22:27 33.90261 -118.48976 2618 ft 255 kts 233°
2026-05-07 22:27 33.89159 -118.50684 3410 ft 261 kts 234°
2026-05-07 22:27 33.88041 -118.52420 4282 ft 264 kts 235°
2026-05-07 22:28 33.86912 -118.54175 5139 ft 267 kts 234°
2026-05-07 22:28 33.85783 -118.55924 5952 ft 270 kts 232°
2026-05-07 22:28 33.84336 -118.57389 6746 ft 279 kts 208°
2026-05-07 22:28 33.82435 -118.57950 7468 ft 288 kts 180°
2026-05-07 22:29 33.80454 -118.57509 8233 ft 293 kts 163°
2026-05-07 22:29 33.78496 -118.56748 9007 ft 297 kts 161°
2026-05-07 22:29 33.76518 -118.55975 9863 ft 300 kts 161°
2026-05-07 22:29 33.74490 -118.55201 10351 ft 316 kts 161°
2026-05-07 22:30 33.72450 -118.54031 10593 ft 336 kts 141°
2026-05-07 22:30 33.70822 -118.51932 10781 ft 354 kts 123°
2026-05-07 22:30 33.69419 -118.49440 11270 ft 364 kts 122°
2026-05-07 22:30 33.68010 -118.46898 11944 ft 368 kts 122°
2026-05-07 22:31 33.66591 -118.44325 12655 ft 371 kts 122°
2026-05-07 22:31 33.65164 -118.41739 12933 ft 372 kts 122°
2026-05-07 22:31 33.63720 -118.39132 13015 ft 383 kts 122°
2026-05-07 22:31 33.62205 -118.36403 13021 ft 402 kts 122°
2026-05-07 22:32 33.60632 -118.33581 13025 ft 409 kts 122°
2026-05-07 22:32 33.59046 -118.30750 13023 ft 410 kts 122°
2026-05-07 22:32 33.57451 -118.27914 13022 ft 410 kts 122°
2026-05-07 22:32 33.55858 -118.25079 13031 ft 410 kts 122°
2026-05-07 22:33 33.54266 -118.22243 13017 ft 410 kts 122°
2026-05-07 22:33 33.52677 -118.19407 13021 ft 410 kts 122°
2026-05-07 22:33 33.51091 -118.16575 13020 ft 410 kts 122°
2026-05-07 22:33 33.49502 -118.13736 13018 ft 410 kts 122°
2026-05-07 22:34 33.47915 -118.10903 13005 ft 410 kts 122°
2026-05-07 22:34 33.46324 -118.08071 13008 ft 410 kts 122°
2026-05-07 22:34 33.44730 -118.05239 12994 ft 410 kts 122°
2026-05-07 22:34 33.43135 -118.02409 12997 ft 410 kts 122°
2026-05-07 22:35 33.41540 -117.99578 13001 ft 410 kts 122°
2026-05-07 22:35 33.39947 -117.96750 13025 ft 410 kts 122°
2026-05-07 22:35 33.38352 -117.93918 13026 ft 410 kts 122°
2026-05-07 22:35 33.36759 -117.91091 13025 ft 410 kts 122°
2026-05-07 22:36 33.35164 -117.88259 13024 ft 410 kts 122°
2026-05-07 22:36 33.33567 -117.85431 13027 ft 410 kts 122°
2026-05-07 22:36 33.31968 -117.82602 13022 ft 411 kts 122°
2026-05-07 22:36 33.30367 -117.79776 13025 ft 411 kts 122°
2026-05-07 22:37 33.28780 -117.76981 12995 ft 397 kts 122°
2026-05-07 22:37 33.27269 -117.74329 12999 ft 378 kts 122°
2026-05-07 22:37 33.25825 -117.71788 13000 ft 372 kts 122°
2026-05-07 22:37 33.24378 -117.69235 13006 ft 371 kts 122°
2026-05-07 22:38 33.22930 -117.66684 13008 ft 371 kts 122°
2026-05-07 22:38 33.21484 -117.64137 13010 ft 368 kts 122°
2026-05-07 22:38 33.20078 -117.61669 12928 ft 352 kts 122°
2026-05-07 22:38 33.18727 -117.59301 12791 ft 339 kts 122°
2026-05-07 22:39 33.17395 -117.56965 11956 ft 346 kts 122°
2026-05-07 22:39 33.16014 -117.54538 11097 ft 357 kts 122°
2026-05-07 22:39 33.14648 -117.52141 10968 ft 342 kts 122°
2026-05-07 22:39 33.13337 -117.49846 10850 ft 328 kts 122°
2026-05-07 22:40 33.12077 -117.47641 10725 ft 316 kts 122°
2026-05-07 22:40 33.10864 -117.45517 10610 ft 304 kts 122°
2026-05-07 22:40 33.09692 -117.43466 10417 ft 296 kts 122°
2026-05-07 22:40 33.08540 -117.41446 10089 ft 293 kts 122°
2026-05-07 22:41 33.07395 -117.39442 9732 ft 292 kts 122°
2026-05-07 22:41 33.06254 -117.37445 9352 ft 291 kts 122°
2026-05-07 22:41 33.05108 -117.35466 8969 ft 290 kts 126°
2026-05-07 22:41 33.03705 -117.33748 8580 ft 291 kts 141°
2026-05-07 22:42 33.01976 -117.32509 8176 ft 291 kts 156°
2026-05-07 22:42 33.00067 -117.31691 7766 ft 291 kts 160°
2026-05-07 22:42 32.98787 -117.31161 7662 ft 284 kts 160°
2026-05-07 22:42 32.96963 -117.30398 7544 ft 272 kts 160°
2026-05-07 22:43 32.95215 -117.29664 7406 ft 261 kts 160°
2026-05-07 22:43 32.93513 -117.28948 7115 ft 258 kts 160°
2026-05-07 22:43 32.91826 -117.28238 6808 ft 256 kts 160°
2026-05-07 22:43 32.90161 -117.27540 6601 ft 249 kts 160°
2026-05-07 22:44 32.88604 -117.26716 6336 ft 244 kts 142°
2026-05-07 22:44 32.87564 -117.25184 5994 ft 239 kts 111°
2026-05-07 22:44 32.87071 -117.23304 5640 ft 239 kts 102°
2026-05-07 22:44 32.86688 -117.21382 5321 ft 239 kts 101°
2026-05-07 22:45 32.86327 -117.19487 5077 ft 236 kts 101°
2026-05-07 22:45 32.85966 -117.17575 5016 ft 238 kts 101°
2026-05-07 22:45 32.85587 -117.15615 5016 ft 242 kts 101°
2026-05-07 22:45 32.85204 -117.13697 5015 ft 242 kts 101°
2026-05-07 22:46 32.84820 -117.11749 5018 ft 242 kts 101°
2026-05-07 22:46 32.84444 -117.09802 5020 ft 243 kts 101°
2026-05-07 22:46 32.84069 -117.07880 5014 ft 232 kts 101°
2026-05-07 22:46 32.83711 -117.06068 5012 ft 222 kts 101°
2026-05-07 22:47 32.83359 -117.04284 5002 ft 221 kts 101°
2026-05-07 22:47 32.83010 -117.02504 5008 ft 221 kts 100°
2026-05-07 22:47 32.82658 -117.00732 4879 ft 219 kts 101°
2026-05-07 22:47 32.82306 -116.98971 4620 ft 218 kts 101°
2026-05-07 22:48 32.81962 -116.97220 4374 ft 217 kts 101°
2026-05-07 22:48 32.81624 -116.95476 4134 ft 214 kts 100°
2026-05-07 22:48 32.81091 -116.93825 3837 ft 217 kts 128°
2026-05-07 22:48 32.79908 -116.92768 3788 ft 215 kts 155°
2026-05-07 22:49 32.78520 -116.92078 3788 ft 215 kts 160°
2026-05-07 22:49 32.77111 -116.91454 3782 ft 217 kts 161°
2026-05-07 22:49 32.75704 -116.90848 3783 ft 214 kts 160°
2026-05-07 22:49 32.74285 -116.90345 3773 ft 214 kts 177°
2026-05-07 22:50 32.72865 -116.90690 3773 ft 210 kts 215°
2026-05-07 22:50 32.71890 -116.91918 3786 ft 205 kts 244°
2026-05-07 22:50 32.71278 -116.93440 3785 ft 204 kts 249°
2026-05-07 22:50 32.70731 -116.94993 3785 ft 204 kts 250°
2026-05-07 22:51 32.70201 -116.96553 3784 ft 203 kts 252°
2026-05-07 22:51 32.69729 -116.98125 3791 ft 201 kts 260°
2026-05-07 22:51 32.69620 -116.99762 3785 ft 198 kts 277°
2026-05-07 22:51 32.69777 -117.01388 3715 ft 200 kts 281°
2026-05-07 22:52 32.70011 -117.03058 3219 ft 211 kts 282°
2026-05-07 22:52 32.70272 -117.04823 2725 ft 219 kts 280°
2026-05-07 22:52 32.70514 -117.06508 2580 ft 204 kts 280°
2026-05-07 22:52 32.70747 -117.08163 2100 ft 198 kts 279°
2026-05-07 22:53 32.71058 -117.09711 1813 ft 183 kts 284°
2026-05-07 22:53 32.71404 -117.11095 1596 ft 171 kts 286°
2026-05-07 22:53 32.71778 -117.12431 1219 ft 166 kts 288°
2026-05-07 22:53 32.72146 -117.13676 924 ft 155 kts 285°
2026-05-07 22:54 32.72386 -117.14877 698 ft 144 kts 280°
2026-05-07 22:54 32.72636 -117.15986 465 ft 137 kts 284°
2026-05-07 22:54 32.72898 -117.17057 287 ft 136 kts 286°
2026-05-07 22:54 32.73157 -117.18130 51 ft 132 kts 284°
2026-05-07 22:55 32.73392 -117.19097 20 ft 101 kts 285°
2026-05-07 22:55 32.73537 -117.19702 27 ft 52 kts 286°
2026-05-07 22:55 32.73611 -117.20003 25 ft 34 kts 286°
2026-05-07 22:55 32.73626 -117.20182 22 ft 17 kts 227°
2026-05-07 22:56 32.73512 -117.20238 22 ft 18 kts 193°
2026-05-07 22:56 32.73383 -117.20276 21 ft 19 kts 181°
2026-05-07 22:56 32.73281 -117.20258 21 ft 12 kts 193°
2026-05-07 22:56 32.73236 -117.20278 22 ft 0 kts 199°